Flag for U.S.A. Weather past 2 weeks in Washington DC, District of Columbia, U.S.A.

Now
46 °F

Passing clouds.


Feels Like: 41 °F
Forecast: 28 / 49 °F
Wind: 9 mph from Northwest

Location: Reagan National Airport

Current Time: Mar 29, 2015 at 3:34:11 PM

Latest Report: Mar 29, 2015 at 2:52 PM


Visibility: 10 mi

Pressure: 30.33 "Hg

Humidity: 22%

Dew point: 9 °F

Location of Washington DCLocation

Historic Weather in Washington DC — Graph

°F

Washington DC temperature yesterday

Maximum temperature yesterday: 42 °F (at 12:52 AM)
Minimum temperature yesterday: 32 °F (at 7:52 AM)
Average temperature yesterday: 36 °F

Past Weeks' High & Low Weather Summary

 TemperatureHumidityPressure
High76 °F (Mar 26, 5:52 PM)90% (Mar 14, 4:52 PM)30.42 "Hg (Mar 14, 4:52 PM)
Low28 °F (Mar 29, 4:52 AM)17% (Mar 18, 4:52 PM)29.59 "Hg (Mar 26, 5:52 PM)
Average47 °F51%30.08 "Hg
* Reported Mar 14 1:52 PM — Mar 29 1:52 PM, Washington DC, Weather by CustomWeather, © 2015

Note: Actual official high and low records may vary slightly from our data, if they occured in-between our weather recording intervals... More about our weather records

Advertising

Washington DC weather history for previous 24 hours

 ConditionsComfort  
Time TempWeatherWind HumidityBarometerVisibility
1:52 PM
Sun, Mar 29
43 °FPassing clouds.7 mph26%30.36 "Hg10 mi
12:52 PM41 °FSunny.3 mph27%30.38 "Hg10 mi
11:52 AM38 °FSunny.12 mph31%30.41 "Hg10 mi
10:52 AM37 °FSunny.10 mph31%30.42 "Hg10 mi
9:52 AM34 °FSunny.12 mph38%30.41 "Hg10 mi
8:52 AM31 °FSunny.12 mph41%30.40 "Hg10 mi
7:52 AM29 °FClear.13 mph41%30.39 "Hg10 mi
6:52 AM28 °FClear.13 mph43%30.36 "Hg10 mi
5:52 AM28 °FClear.9 mph41%30.33 "Hg10 mi
4:52 AM28 °FClear.12 mph39%30.31 "Hg10 mi
3:52 AM29 °FClear.14 mph36%30.30 "Hg10 mi
2:52 AM30 °FClear.12 mph33%30.29 "Hg10 mi
1:52 AM31 °FClear.14 mph33%30.28 "Hg10 mi
12:52 AM31 °FClear.16 mph35%30.27 "Hg10 mi
11:52 PM
Sat, Mar 28
32 °FClear.14 mph35%30.25 "Hg10 mi
10:52 PM32 °FPassing clouds.13 mph35%30.24 "Hg10 mi
9:52 PM32 °FPassing clouds.13 mph35%30.23 "Hg10 mi
8:52 PM33 °FPassing clouds.15 mph36%30.20 "Hg10 mi
7:52 PM34 °FMostly cloudy.15 mph37%30.17 "Hg10 mi
6:52 PM35 °FPartly sunny.22 mph35%30.13 "Hg10 mi
5:52 PM36 °FPartly sunny.14 mph34%30.09 "Hg10 mi
4:52 PM37 °FPartly sunny.18 mph36%30.07 "Hg10 mi
3:52 PM36 °FPartly sunny.14 mph35%30.05 "Hg10 mi
Weather by CustomWeather, © 2015

See weather overviewHow to use our weather pages